Вернуться в каталог

GLOBALSTAR M014

АктивенСвязьLEO
NORAD 25306·PAYLOAD·🇺🇸 United States

Запущен Apr 24, 1998 с Cape Canaveral Space Force Station

Loading…

Ближайшие Пролёты (ближайшие 24 часа)

TLE

СвежийSource: Space-Track

Эпоха: Sep 14, 2026, 13:46 UTC

1 25306U 98023A   26257.57386928 -.00000076  00000-0  31739-4 0  9999
2 25306  51.9821  94.5602 0001677 101.3719 271.4610 11.65488212244158

Отслеживайте GLOBALSTAR M014 в реальном времени с AllMySat

Download on the App Store